This is the latest recevied weather packets stored in our database for station/object JR4VEV-13. If no packets are shown the sender has not sent any weather packets the latest 10 day(s).
| Time | Temp. | Humidity | Pressure | Rain* | Wind** | Luminosity | Snow |
|---|---|---|---|---|---|---|---|
| 1777818289 | 16.11° C | 97% | 1001.3 hPa | 0 mm | - | - | - |
| 1777817688 | 16.11° C | 97% | 1001.5 hPa | 0 mm | - | - | - |
| 1777817090 | 16.11° C | 97% | 1001.4 hPa | 0 mm | - | - | - |
| 1777816489 | 16.11° C | 97% | 1001.5 hPa | 0.25 mm | - | - | - |
| 1777815888 | 16.11° C | 97% | 1001.4 hPa | 0.51 mm | - | - | - |
| 1777815290 | 16.11° C | 97% | 1001.5 hPa | 0.51 mm | - | - | - |
| 1777814690 | 16.11° C | 97% | 1001.7 hPa | 1.02 mm | - | - | - |
| 1777814089 | 16.11° C | 97% | 1001.8 hPa | 1.52 mm | - | - | - |
| 1777813489 | 16.11° C | 97% | 1001.8 hPa | 2.03 mm | - | - | - |
| 1777812888 | 16.11° C | 97% | 1001.8 hPa | 2.29 mm | - | - | - |
| 1777812290 | 16.11° C | 97% | 1002.2 hPa | 2.29 mm | - | - | - |
| 1777811690 | 16.11° C | 97% | 1002.2 hPa | 2.79 mm | - | - | - |
| 1777811089 | 16.11° C | 97% | 1002 hPa | 3.05 mm | - | - | - |
| 1777810489 | 16.11° C | 97% | 1001.9 hPa | 3.05 mm | - | - | - |
| 1777809889 | 16.11° C | 97% | 1002 hPa | 2.79 mm | - | - | - |
| 1777809289 | 16.11° C | 97% | 1002.1 hPa | 3.05 mm | - | - | - |
| 1777808688 | 16.11° C | 97% | 1002 hPa | 2.54 mm | - | - | - |
| 1777808089 | 16.11° C | 97% | 1001.9 hPa | 2.29 mm | - | - | - |
| 1777807489 | 16.11° C | 97% | 1001.8 hPa | 1.78 mm | - | - | - |
| 1777806888 | 16.11° C | 97% | 1001.7 hPa | 1.78 mm | - | - | - |
| 1777806290 | 16.11° C | 97% | 1001.6 hPa | 1.52 mm | - | - | - |
| 1777805690 | 16.11° C | 97% | 1001.5 hPa | 1.52 mm | - | - | - |
| 1777805089 | 16.11° C | 97% | 1001.5 hPa | 1.78 mm | - | - | - |
| 1777804490 | 16.11° C | 97% | 1001.6 hPa | 2.29 mm | - | - | - |
| 1777803889 | 16.11° C | 97% | 1001.7 hPa | 2.29 mm | - | - | - |
* Rain latest hour (hover to see other rain measurements)
** Current wind speed in m/s (hover to see current wind gust speed)